Regional Weather Roundup
Issued by NWS

Home | Current Version | Previous Version | Text Only | Print | Product List | Glossary Off
Versions: 1 2 3 4 5 6 7 8 9 10 11 12 13 14 15 16 17 18 19 20 21 22 23 24 25 26 27

000
ASUS45 KCYS 271310
RWRWY

WYOMING REGIONAL WEATHER ROUNDUP
NATIONAL WEATHER SERVICE CHEYENNE WY
700 AM MDT SAT AUG 27 2016

NOTE:  "FAIR" INDICATES FEW OR NO CLOUDS BELOW 12,000 FEET
WITH NO SIGNIFICANT WEATHER AND/OR OBSTRUCTIONS TO VISIBILITY.

WYZ001-271400-
YELLOWSTONE NATIONAL PARK

CITY           SKY/WX    TMP DP  RH WIND       PRES   REMARKS
LK YELLOWSTONE   N/A     30  28  92 NW3       30.21R
W YELLOWSTONE  NOT AVBL

$$
WYZ002>013-054>058-071-098>099-271400-
NORTHERN WYOMING

CITY           SKY/WX    TMP DP  RH WIND       PRES   REMARKS
JACKSON        CLEAR     30  27  86 N7        30.17R WCI  23
CODY           FAIR      50  39  66 S9        30.01R
GREYBULL       FAIR      49  39  68 CALM      29.98S
WORLAND        FAIR      42  38  85 CALM      30.00R
SHERIDAN       FAIR      46  42  86 SW3       29.97S
BUFFALO        FAIR      53  40  61 S10       30.02R
GILLETTE       FAIR      51  49  92 S13       30.00R
HULETT         FAIR      52  46  82 SW3       30.03R
NEWCASTLE      FAIR      54  48  82 SE9       30.04S

$$
WYZ014>020-022>026-101>103-271400-
CENTRAL WYOMING

CITY           SKY/WX    TMP DP  RH WIND       PRES   REMARKS
BIG PINEY      FAIR      27  24  89 CALM      30.21R
PINEDALE       FAIR      28  28 100 NW6       30.22R WCI  22
DUBOIS         FAIR      37  27  65 NW7       30.16S WCI  32
LANDER         FAIR      45  38  76 SE5       30.08R
RIVERTON       FAIR      47  38  71 W14       30.08R
CASPER         FAIR      53  43  68 S13       30.08R
DOUGLAS        FAIR      44  41  89 CALM      30.09R

$$
WYZ021-027>030-104>119-271400-
SOUTHERN WYOMING

CITY           SKY/WX    TMP DP  RH WIND       PRES   REMARKS
EVANSTON       FAIR      48  29  47 S7        30.22R
FORT BRIDGER   SUNNY     55  32  41 SW10      30.24R
ROCK SPRINGS   FAIR      48  33  56 W8        30.19R
DIXON          FAIR      40  34  80 SE6       30.26R
RAWLINS        FAIR      50  38  63 W8        30.19R
SARATOGA       FAIR      48  34  57 SE8G21    30.24R
LARAMIE        FAIR      44  34  67 SE8       30.22R
CHEYENNE       FAIR      49  41  74 W7        30.16R
TORRINGTON     FOG       51  51 100 E3        30.06R VSB<1/4
PINE BLUFFS    FAIR      46  45  93 CALM      30.12R

$$




USA.gov is the U.S. government's official web portal to all federal, state and local government web resources and services.